EW4939 Weather Reports


Display with metric or nautical units.
time (UTC)temp
F
wind
direction
speed
MPH
gust
MPH
rain 1hr
in
rain 24hr
in
rain mn
in
humidity
%
barometer
mb
20260906144839 72 330 1.0 2.0 0.00 0.00 0.00 72 1016.9
20260906144329 73 25 2.0 4.0 0.00 0.00 0.00 69 1016.8
20260906143828 72 43 2.0 6.0 0.00 0.00 0.00 68 1016.7
20260906143325 72 14 3.0 4.0 0.00 0.00 0.00 69 1016.6
20260906142820 72 341 2.0 4.0 0.00 0.00 0.00 69 1016.4
20260906142315 72 11 3.0 3.0 0.00 0.00 0.00 70 1016.5
20260906141814 71 8 5.0 7.0 0.00 0.00 0.00 70 1016.4
20260906141309 71 25 4.0 4.0 0.00 0.00 0.00 71 1016.5
20260906140807 71 63 0.0 3.0 0.00 0.00 0.00 71 1016.5
20260906140303 71 344 2.0 7.0 0.00 0.00 0.00 73 1016.3
20260906135800 70 7 3.0 8.0 0.00 0.00 0.00 73 1016.4
20260906135255 70 207 1.0 4.0 0.00 0.00 0.00 74 1016.5
20260906134751 70 353 1.0 2.0 0.00 0.00 0.00 75 1016.5
20260906134246 70 1 1.0 4.0 0.00 0.00 0.00 75 1016.4
20260906133741 70 335 3.0 4.0 0.00 0.00 0.00 76 1016.5
20260906133237 69 40 2.0 3.0 0.00 0.00 0.00 76 1016.5
20260906132732 69 19 2.0 2.0 0.00 0.00 0.00 79 1016.4
20260906132227 69 19 2.0 3.0 0.00 0.00 0.00 80 1016.4
20260906131723 69 8 3.0 6.0 0.00 0.00 0.00 78 1016.5
20260906131218 69 26 2.0 4.0 0.00 0.00 0.00 80 1016.5
20260906130713 68 48 0.0 6.0 0.00 0.00 0.00 83 1016.5
20260906130208 68 30 0.0 4.0 0.00 0.00 0.00 86 1016.3
20260906125707 67 346 2.0 2.0 0.00 0.00 0.00 88 1016.2
20260906125205 67 42 0.0 1.0 0.00 0.00 0.00 89 1016.3
20260906124701 67 28 1.0 1.0 0.00 0.00 0.00 90 1016.3
20260906124156 67 28 0.0 1.0 0.00 0.00 0.00 90 1016.1
20260906123655 66 15 0.0 3.0 0.00 0.00 0.00 91 1016.1
20260906123150 66 34 0.0 1.0 0.00 0.00 0.00 93 1016.2
20260906122649 66 21 0.0 1.0 0.00 0.00 0.00 93 1016.3
20260906122145 67 353 0.0 1.0 0.00 0.00 0.00 93 1015.8
20260906121641 67 5 0.0 1.0 0.00 0.00 0.00 92 1015.7
20260906121137 67 356 0.0 0.0 0.00 0.00 0.00 91 1015.7
20260906120633 67 358 1.0 1.0 0.00 0.00 0.00 91 1015.6
20260906120131 67 16 0.0 1.0 0.00 0.00 0.00 92 1015.4
20260906115630 67 349 0.0 1.0 0.00 0.00 0.00 92 1015.3
20260906115126 67 352 0.0 0.0 0.00 0.00 0.00 91 1015.5
20260906114625 66 14 0.0 1.0 0.00 0.00 0.00 91 1015.3
20260906114120 66 358 0.0 0.0 0.00 0.00 0.00 93 1015.2
20260906113621 66 358 0.0 0.0 0.00 0.00 0.00 92 1015.4
20260906113120 67 2 0.0 0.0 0.00 0.00 0.00 92 1015.3
20260906112619 67 3 0.0 1.0 0.00 0.00 0.00 89 1015.2
20260906112117 66 27 0.0 1.0 0.00 0.00 0.00 90 1015.1
20260906111616 66 6 0.0 1.0 0.00 0.00 0.00 91 1015.0
20260906111111 66 10 0.0 1.0 0.00 0.00 0.00 91 1015.0
20260906110606 66 330 0.0 1.0 0.00 0.00 0.00 92 1014.9
20260906110106 66 14 0.0 0.0 0.00 0.00 0.00 92 1014.9
20260906105600 66 15 0.0 0.0 0.00 0.00 0.00 91 1014.8
20260906105056 66 14 0.0 1.0 0.00 0.00 0.00 91 1014.9
20260906104555 66 33 1.0 3.0 0.00 0.00 0.00 91 1014.7
20260906104049 66 5 1.0 3.0 0.00 0.00 0.00 91 1014.7
20260906103548 66 44 0.0 1.0 0.00 0.00 0.00 92 1014.5
20260906103044 67 28 0.0 1.0 0.00 0.00 0.00 92 1014.6
20260906102543 67 37 1.0 2.0 0.00 0.00 0.00 92 1014.6
20260906102038 67 349 2.0 2.0 0.00 0.00 0.00 93 1014.6
20260906101533 67 1 0.0 2.0 0.00 0.00 0.00 94 1014.5
20260906101027 67 338 1.0 2.0 0.00 0.00 0.00 95 1014.4
20260906100524 67 31 0.0 1.0 0.00 0.00 0.00 96 1014.4
20260906100023 67 27 1.0 1.0 0.00 0.00 0.00 96 1014.3
20260906095518 67 13 0.0 2.0 0.00 0.00 0.00 97 1014.4
20260906095014 67 13 3.0 3.0 0.00 0.00 0.00 97 1014.4
20260906094512 67 18 2.0 3.0 0.00 0.00 0.00 98 1014.1
20260906094009 67 26 0.0 1.0 0.00 0.00 0.00 98 1014.1
20260906093504 67 22 1.0 3.0 0.00 0.00 0.00 99 1014.2
20260906092959 67 23 0.0 2.0 0.00 0.00 0.00 99 1014.2
20260906092459 67 354 0.0 2.0 0.00 0.00 0.00 99 1014.1
20260906091954 67 307 1.0 2.0 0.00 0.00 0.00 99 1014.2
20260906091450 67 335 2.0 2.0 0.00 0.00 0.00 99 1014.0
20260906090947 67 10 1.0 2.0 0.00 0.00 0.00 99 1014.1
20260906090441 67 38 1.0 3.0 0.00 0.00 0.00 99 1014.1
20260906085941 67 7 0.0 2.0 0.00 0.00 0.00 99 1013.9
20260906085440 68 346 1.0 1.0 0.00 0.00 0.00 99 1013.9
20260906084939 68 29 0.0 2.0 0.00 0.00 0.00 99 1013.8
20260906084435 68 38 1.0 3.0 0.00 0.00 0.00 99 1013.8
20260906083934 68 27 2.0 3.0 0.00 0.00 0.00 99 1013.9
20260906083430 68 0 1.0 2.0 0.00 0.00 0.00 99 1013.8
20260906082929 68 24 1.0 1.0 0.00 0.00 0.00 99 1013.9
20260906082424 68 8 1.0 1.0 0.00 0.00 0.00 99 1013.9
20260906081920 69 34 0.0 2.0 0.00 0.00 0.00 99 1013.8
20260906081415 69 27 1.0 3.0 0.00 0.00 0.00 99 1013.9
20260906080911 69 300 1.0 3.0 0.00 0.00 0.00 99 1013.8
20260906080408 69 40 0.0 0.0 0.00 0.00 0.00 99 1013.9
20260906075906 69 27 0.0 2.0 0.00 0.00 0.00 99 1013.9
20260906075402 70 26 0.0 2.0 0.00 0.00 0.00 99 1013.7
20260906074857 70 21 1.0 1.0 0.00 0.00 0.00 99 1013.7
20260906074356 70 26 0.0 1.0 0.00 0.00 0.00 99 1013.8
20260906073855 71 24 0.0 0.0 0.00 0.00 0.00 99 1013.7
20260906073350 71 5 0.0 0.0 0.00 0.00 0.00 99 1013.7
20260906072847 71 345 1.0 1.0 0.00 0.00 0.00 99 1013.7
20260906072342 71 351 1.0 1.0 0.00 0.00 0.00 99 1013.7
20260906071839 71 345 1.0 1.0 0.00 0.00 0.00 99 1013.8
20260906071339 71 18 1.0 2.0 0.00 0.00 0.00 99 1014.0
20260906070835 71 38 0.0 0.0 0.00 0.00 0.00 99 1013.9
20260906070331 71 24 1.0 2.0 0.00 0.00 0.00 99 1013.8
20260906065826 71 335 0.0 1.0 0.00 0.00 0.00 99 1014.0
20260906065320 71 17 1.0 2.0 0.00 0.00 0.00 99 1014.1
20260906064817 71 7 0.0 2.0 0.00 0.00 0.00 99 1014.0
20260906064313 71 333 0.0 0.0 0.00 0.00 0.00 99 1013.8
20260906063812 71 22 0.0 1.0 0.00 0.00 0.00 99 1013.7
20260906063308 71 349 1.0 2.0 0.00 0.00 0.00 99 1014.0
20260906062803 71 17 0.0 1.0 0.00 0.00 0.00 99 1013.9
20260906062305 71 13 1.0 2.0 0.00 0.00 0.00 99 1014.0
20260906061758 71 7 3.0 4.0 0.00 0.00 0.00 99 1013.9
20260906061254 71 38 2.0 3.0 0.00 0.00 0.00 99 1013.9
20260906060749 71 37 2.0 3.0 0.00 0.00 0.00 99 1014.1
20260906060247 71 32 0.0 6.0 0.00 0.00 0.00 99 1014.0
20260906055742 72 350 2.0 2.0 0.00 0.00 0.00 99 1014.0
20260906055237 72 23 1.0 2.0 0.00 0.00 0.00 99 1013.7
20260906054732 72 22 2.0 3.0 0.00 0.00 0.00 99 1013.7
20260906054227 72 24 0.0 1.0 0.00 0.00 0.00 99 1013.9
20260906053724 72 12 1.0 1.0 0.00 0.00 0.00 99 1013.8
20260906053219 72 286 0.0 0.0 0.00 0.00 0.00 99 1013.8
20260906052714 72 12 0.0 1.0 0.00 0.00 0.00 99 1013.8
20260906052211 72 23 2.0 3.0 0.00 0.00 0.00 99 1013.9
20260906051708 72 341 1.0 1.0 0.00 0.00 0.00 99 1013.8
20260906051207 72 36 0.0 1.0 0.00 0.00 0.00 99 1013.7
20260906050702 72 33 1.0 1.0 0.00 0.00 0.00 99 1013.7
20260906050157 73 51 0.0 2.0 0.00 0.00 0.00 99 1013.6
20260906045655 73 337 1.0 2.0 0.00 0.00 0.00 99 1013.6
20260906045151 73 35 0.0 3.0 0.00 0.00 0.00 99 1013.6
20260906044647 73 11 2.0 2.0 0.00 0.00 0.00 99 1013.4
20260906044142 73 21 0.0 0.0 0.00 0.00 0.00 99 1013.5
20260906043638 73 345 1.0 2.0 0.00 0.00 0.00 99 1013.1
20260906043133 72 31 0.0 1.0 0.00 0.00 0.00 99 1013.1
20260906042633 72 10 0.0 1.0 0.00 0.00 0.00 99 1013.1
20260906042127 72 24 0.0 1.0 0.00 0.00 0.00 99 1012.9
20260906041623 72 30 0.0 1.0 0.00 0.00 0.00 99 1013.0
20260906041124 72 40 0.0 1.0 0.00 0.00 0.00 99 1013.1
20260906040619 72 72 0.0 0.0 0.00 0.00 0.00 99 1013.1
20260906040115 72 72 0.0 0.0 0.00 0.43 0.43 99 1013.1
20260906035610 72 72 0.0 0.0 0.00 0.43 0.43 99 1013.1
20260906035106 72 73 0.0 0.0 0.00 0.43 0.43 99 1013.1
20260906034605 72 73 0.0 0.0 0.00 0.43 0.43 99 1013.1
20260906034101 72 95 0.0 0.0 0.00 0.43 0.43 99 1013.1
20260906033556 72 95 0.0 0.0 0.00 0.43 0.43 99 1012.9
20260906033051 72 95 0.0 0.0 0.00 0.43 0.43 99 1013.0
20260906032548 72 94 0.0 0.0 0.00 0.43 0.43 99 1013.1
20260906032047 72 107 0.0 0.0 0.00 0.43 0.43 99 1013.0
20260906031543 72 107 0.0 0.0 0.00 0.43 0.43 99 1012.7
20260906031039 72 107 0.0 0.0 0.00 0.43 0.43 99 1013.0
20260906030538 72 107 0.0 0.0 0.00 0.43 0.43 99 1012.8
20260906030038 72 107 0.0 1.0 0.00 0.43 0.43 99 1012.9
20260906025538 72 107 0.0 0.0 0.00 0.43 0.43 99 1013.0
20260906025036 72 107 0.0 0.0 0.00 0.43 0.43 99 1013.1
20260906024532 72 107 0.0 0.0 0.00 0.43 0.43 99 1013.0
20260906024031 72 107 0.0 0.0 0.00 0.43 0.43 99 1013.1
20260906023528 72 106 0.0 0.0 0.00 0.43 0.43 99 1013.0
20260906023022 72 106 0.0 0.0 0.00 0.43 0.43 99 1013.1
20260906022518 72 106 0.0 0.0 0.00 0.43 0.43 99 1013.0
20260906022013 72 106 0.0 0.0 0.00 0.43 0.43 99 1012.9
20260906021508 72 106 0.0 0.0 0.00 0.43 0.43 99 1013.2
20260906021002 72 106 0.0 0.0 0.00 0.43 0.43 99 1012.9
20260906020501 72 106 0.0 0.0 0.00 0.43 0.43 99 1013.1
20260906020001 72 106 0.0 0.0 0.00 0.43 0.43 99 1013.2
20260906015500 72 106 0.0 0.0 0.00 0.43 0.43 99 1013.2
20260906015000 72 106 0.0 0.0 0.00 0.43 0.43 99 1013.3
20260906014455 72 106 0.0 0.0 0.00 0.43 0.43 99 1013.1
20260906013951 72 106 0.0 0.0 0.00 0.43 0.43 99 1013.3
20260906013447 72 106 0.0 0.0 0.00 0.43 0.43 99 1013.2
20260906012943 72 106 0.0 1.0 0.00 0.43 0.43 99 1013.4
20260906012443 72 107 0.0 1.0 0.00 0.43 0.43 99 1013.2
20260906011942 72 106 0.0 0.0 0.00 0.43 0.43 99 1013.0
20260906011437 72 106 0.0 0.0 0.00 0.43 0.43 99 1012.8
20260906010933 72 105 0.0 0.0 0.00 0.43 0.43 99 1012.7
20260906010428 72 156 0.0 0.0 0.00 0.43 0.43 99 1012.7
20260906005924 72 202 0.0 0.0 0.00 0.43 0.43 99 1012.7
20260906005424 72 165 0.0 0.0 0.00 0.43 0.43 99 1012.7
20260906004922 72 164 0.0 0.0 0.12 0.43 0.43 99 1012.6
20260906004416 71 164 0.0 0.0 0.12 0.43 0.43 99 1012.6
20260906003912 71 154 1.0 1.0 0.00 0.41 0.41 99 1012.4
20260906003407 71 25 0.0 0.0 0.00 0.41 0.41 99 1012.3
20260906002903 71 25 0.0 1.0 0.00 0.41 0.41 99 1012.5
20260906002402 71 24 0.0 0.0 0.00 0.41 0.41 99 1012.4
20260906001857 71 24 0.0 0.0 0.00 0.41 0.41 99 1012.3
20260906001353 71 24 0.0 1.0 0.00 0.41 0.41 99 1012.0
20260906000853 71 34 0.0 0.0 0.00 0.41 0.41 99 1011.7
20260906000355 71 37 0.0 1.0 0.00 0.41 0.41 99 1011.7
20260905235849 71 36 0.0 0.0 0.00 0.41 0.41 99 1011.7
20260905235343 71 169 0.0 0.0 0.00 0.41 0.41 99 1011.7
20260905234838 71 169 0.0 1.0 0.00 0.41 0.41 99 1012.0
20260905234333 71 170 0.0 1.0 0.00 0.41 0.41 98 1012.2
20260905233829 71 171 1.0 1.0 0.00 0.41 0.41 98 1012.2
20260905233323 70 184 0.0 0.0 0.05 0.41 0.41 97 1012.0
20260905232822 70 196 0.0 1.0 0.78 0.41 0.41 95 1012.1
20260905232319 71 181 2.0 7.0 1.91 0.40 0.40 95 1012.0
20260905231814 73 336 11.0 24.0 0.97 0.23 0.23 93 1013.2
20260905231309 80 36 5.0 9.0 0.00 0.07 0.07 85 1012.4
20260905230806 83 10 4.0 4.0 0.00 0.07 0.07 83 1012.4
20260905230303 83 165 0.0 0.0 0.00 0.07 0.07 82 1011.8
20260905225803 83 165 0.0 0.0 0.00 0.07 0.07 80 1011.1
20260905225258 83 165 0.0 1.0 0.00 0.07 0.07 81 1011.1
20260905224758 84 165 0.0 0.0 0.00 0.07 0.07 79 1011.1
20260905224253 84 167 0.0 1.0 0.00 0.07 0.07 80 1011.2
20260905223749 84 166 0.0 0.0 0.00 0.07 0.07 79 1011.6
20260905223246 85 166 0.0 1.0 0.00 0.07 0.07 77 1011.2
20260905222741 86 43 0.0 0.0 0.00 0.07 0.07 73 1011.3
20260905222240 87 43 0.0 1.0 0.00 0.07 0.07 71 1011.6
20260905221736 87 65 0.0 0.0 0.00 0.07 0.07 69 1011.4
20260905221233 88 16 0.0 1.0 0.00 0.07 0.07 70 1011.4
20260905220728 89 352 0.0 1.0 0.00 0.07 0.07 67 1011.6
20260905220224 89 328 1.0 3.0 0.00 0.07 0.07 66 1011.2
20260905215724 90 29 1.0 2.0 0.00 0.07 0.07 65 1011.1
20260905215220 91 337 1.0 1.0 0.00 0.07 0.07 65 1011.1
20260905214715 89 312 1.0 2.0 0.00 0.07 0.07 65 1011.0
20260905214210 89 16 2.0 3.0 0.00 0.07 0.07 65 1011.1
20260905213706 89 337 1.0 2.0 0.00 0.07 0.07 65 1010.9
20260905213202 90 29 0.0 1.0 0.00 0.07 0.07 64 1011.1
20260905212656 90 310 1.0 2.0 0.00 0.07 0.07 63 1011.2
20260905212156 90 313 2.0 2.0 0.00 0.07 0.07 64 1011.4
20260905211650 89 334 1.0 2.0 0.00 0.07 0.07 64 1011.4
20260905211146 90 311 1.0 3.0 0.00 0.07 0.07 62 1011.6
20260905210643 90 251 0.0 2.0 0.00 0.07 0.07 64 1011.4
20260905210142 90 321 1.0 3.0 0.00 0.07 0.07 63 1011.7
20260905205642 89 331 1.0 2.0 0.00 0.07 0.07 63 1011.6
20260905205141 89 43 1.0 2.0 0.00 0.07 0.07 64 1011.6
20260905204641 89 38 1.0 2.0 0.00 0.07 0.07 66 1011.8
20260905204136 89 255 1.0 1.0 0.00 0.07 0.07 63 1011.7
20260905203637 89 27 2.0 2.0 0.00 0.07 0.07 64 1011.9
20260905203132 89 337 0.0 2.0 0.00 0.07 0.07 65 1012.0
20260905202628 88 20 1.0 2.0 0.00 0.07 0.07 68 1012.0
20260905202123 87 16 1.0 2.0 0.00 0.07 0.07 71 1012.0
20260905201618 84 345 0.0 1.0 0.00 0.07 0.07 78 1011.8
20260905201117 82 23 0.0 0.0 0.00 0.07 0.07 85 1012.1
20260905200614 83 23 0.0 0.0 0.00 0.07 0.07 85 1012.1
20260905200109 84 33 0.0 1.0 0.00 0.07 0.07 82 1012.3
20260905195607 85 345 1.0 2.0 0.00 0.07 0.07 77 1012.1
20260905195103 85 351 0.0 3.0 0.07 0.07 0.07 74 1012.3
20260905194602 90 25 0.0 0.0 0.00 0.06 0.06 64 1012.5
20260905194102 91 258 0.0 4.0 0.00 0.06 0.06 59 1012.5
20260905193556 91 314 2.0 2.0 0.00 0.06 0.06 57 1012.4
20260905193052 91 286 0.0 3.0 0.00 0.06 0.06 59 1012.4
20260905192547 91 6 4.0 6.0 0.00 0.06 0.06 58 1012.6
20260905192044 92 288 1.0 2.0 0.00 0.06 0.06 56 1012.7
20260905191542 91 204 2.0 4.0 0.00 0.06 0.06 57 1012.8
20260905191042 91 326 1.0 3.0 0.00 0.06 0.06 60 1012.9
20260905190540 89 291 1.0 3.0 0.00 0.06 0.06 59 1012.8
20260905190039 89 221 1.0 2.0 0.00 0.06 0.06 64 1012.9
20260905185539 89 28 2.0 3.0 0.00 0.06 0.06 61 1013.0
20260905185038 88 32 1.0 2.0 0.00 0.06 0.06 62 1013.1
20260905184539 89 315 1.0 2.0 0.00 0.06 0.06 61 1013.0
20260905184038 89 301 1.0 2.0 0.00 0.06 0.06 62 1013.1
20260905183537 88 310 1.0 2.0 0.00 0.06 0.06 64 1013.2
20260905183033 88 32 2.0 3.0 0.00 0.06 0.06 61 1013.4
20260905182533 88 21 1.0 4.0 0.00 0.06 0.06 62 1013.2
20260905182032 90 351 2.0 2.0 0.00 0.06 0.06 59 1013.5
20260905181528 90 159 0.0 2.0 0.00 0.06 0.06 59 1013.3
20260905181027 90 177 1.0 2.0 0.00 0.06 0.06 59 1013.3
20260905180527 89 159 0.0 1.0 0.00 0.06 0.06 60 1013.1
20260905180023 89 260 0.0 2.0 0.00 0.06 0.06 60 1013.0
20260905175521 88 205 1.0 2.0 0.00 0.06 0.06 60 1013.3
20260905175017 88 218 1.0 6.0 0.00 0.06 0.06 59 1013.2
20260905174513 88 290 1.0 1.0 0.00 0.06 0.06 60 1013.2
20260905174008 87 147 1.0 4.0 0.00 0.06 0.06 60 1013.2
20260905173504 87 164 0.0 3.0 0.00 0.06 0.06 62 1013.2
20260905172959 87 194 2.0 4.0 0.00 0.06 0.06 62 1013.0
20260905172458 87 193 0.0 3.0 0.00 0.06 0.06 62 1013.0
20260905171953 86 204 1.0 3.0 0.00 0.06 0.06 62 1013.0
20260905171450 87 151 1.0 3.0 0.00 0.06 0.06 63 1013.1
20260905170946 86 281 0.0 1.0 0.00 0.06 0.06 64 1013.3
20260905170442 86 200 1.0 2.0 0.00 0.06 0.06 65 1013.4
20260905165941 85 10 0.0 2.0 0.00 0.06 0.06 67 1013.4
20260905165436 85 317 2.0 3.0 0.00 0.06 0.06 67 1013.5
20260905164932 85 330 2.0 2.0 0.00 0.06 0.06 67 1013.7
20260905164426 85 43 0.0 2.0 0.00 0.06 0.06 68 1013.7
20260905163921 85 345 0.0 2.0 0.00 0.06 0.06 67 1013.8
20260905163418 84 174 0.0 3.0 0.00 0.06 0.06 67 1013.8
20260905162914 84 28 2.0 2.0 0.00 0.06 0.06 66 1013.9
20260905162414 84 279 0.0 3.0 0.00 0.06 0.06 67 1013.9
20260905161909 83 199 2.0 6.0 0.00 0.06 0.06 67 1014.1
20260905161408 83 356 0.0 2.0 0.00 0.06 0.06 67 1013.8
20260905160906 83 43 0.0 3.0 0.00 0.06 0.06 68 1013.9
20260905160401 82 310 1.0 2.0 0.00 0.06 0.06 71 1013.9
20260905155855 82 210 0.0 0.0 0.00 0.06 0.06 70 1013.9
20260905155354 82 204 1.0 4.0 0.00 0.06 0.06 69 1014.0
20260905154853 81 16 1.0 3.0 0.00 0.06 0.06 69 1013.9
20260905154349 81 184 0.0 1.0 0.00 0.06 0.06 72 1013.9
20260905153844 80 286 0.0 1.0 0.00 0.06 0.06 71 1013.9
20260905153341 80 293 1.0 1.0 0.00 0.06 0.06 72 1014.1
20260905152840 80 209 1.0 4.0 0.00 0.06 0.06 72 1013.8
20260905152340 80 184 3.0 7.0 0.00 0.06 0.06 74 1013.7
20260905151835 79 199 1.0 2.0 0.00 0.06 0.06 73 1013.8
20260905151331 79 180 2.0 3.0 0.00 0.06 0.06 74 1013.6
20260905150830 79 187 2.0 4.0 0.00 0.06 0.06 74 1013.6
20260905150325 78 203 2.0 4.0 0.00 0.06 0.06 75 1013.8
20260905145822 78 226 0.0 2.0 0.00 0.06 0.06 75 1014.0
20260905145322 77 151 2.0 2.0 0.00 0.06 0.06 77 1014.0